Hourly Data Report for June 03, 2020

All times are specified in Local Standard Time (LST). Add 1 hour to adjust for Daylight Saving Time where and when it is observed.

OTTAWA INTL A
ONTARIO
Current Station Operator: NAVCAN

45°19'00.000" N
75°40'00.000" W
114.90 m
6106001
71628
YOW

Download Data

Hourly Data (June 2020)
Hourly Data Report for June 3, 2020
TIME Temp Definition
°C
Dew Point Definition
°C
Rel Hum Definition
%
Wind Dir Definition
10's deg

Wind Spd Definition
km/h
Visibility Definition
km
Stn Press Definition
kPa
Hmdx Definition


Wind Chill Definition


Weather Definition


00:00 13.5 11.3 86 6 9 24.1 99.12     LegendNANA
01:00 13.2 11.3 88 7 9 24.1 99.13     Cloudy
02:00 12.6 11.7 94 3 6 16.1 99.10     LegendNANA
03:00 12.4 11.8 96 10 5 16.1 99.00     LegendNANA
04:00 12.4 11.8 96 4 12 12.9 98.97     Cloudy
05:00 12.4 11.9 97 8 7 8.1 98.98     Fog
06:00 12.5 11.9 96 6 8 8.1 98.99     Fog
07:00 12.3 11.8 96 5 9 2.4 98.93     Fog
08:00 12.5 11.9 96 4 3 4.0 98.96     Fog
09:00 13.4 12.4 93 0 1 9.7 98.90     Fog
10:00 14.3 12.6 89 36 1 16.1 98.84     Cloudy
11:00 15.2 12.6 84 1 3 24.1 98.79     LegendNANA
12:00 15.7 12.5 81 20 3 24.1 98.81     LegendNANA
13:00 16.3 13.1 81 28 7 24.1 98.80     Cloudy
14:00 17.4 13.9 80 22 5 24.1 98.84     LegendNANA
15:00 18.2 14.0 77 35 11 24.1 98.83     LegendNANA
16:00 17.9 14.2 78 2 13 24.1 98.84     Mostly Cloudy
17:00 19.4 14.1 71 34 11 24.1 98.83     LegendNANA
18:00 18.2 13.5 74 34 12 24.1 98.86     LegendNANA
19:00 17.5 13.0 75 34 9 24.1 98.93     Mostly Cloudy
20:00 16.3 12.7 79 33 9 24.1 98.98     LegendNANA
21:00 14.2 12.1 87 29 5 24.1 99.06     LegendNANA
22:00 13.6 11.6 87 28 10 24.1 99.11     Clear
23:00 12.4 11.5 94 23 8 24.1 99.14     LegendNANA

Notes on Data Quality.

Legend

  • E = Estimated
  • M = Missing
  • NA = Not Available*
  • [empty] = Indicates an unobserved value
Date modified: